1880 visiteurs
Prévisions de votre ville :
Vigilance : 56 départements Mise à jour le 26/02/2020 à 13:56 - Voir la carte

Paris Roissy CDG (95380) le 26/02/2020 à 13:30 Choisir station

6°C 76 % O Vit. moyenne 30 kmh/h

Relevés météo quotidiens pour la station de :

UTC
S: Synop
M: Metar
Loc T°C
(°C)
Td
(°C)
HR
(%)
Vis
(km)
Néb
(octa)
Vent
(km/h)
Pression
(mb)
Précipitations
(mm)
Temps
              MOY
10 min
DIR RAF 1h MESURE VAR SUR 3h    
S 00 h 01h 11.4 0.5 47 - 70 100 1020.4 +2.3/3h 0.0/6h - 0.0/3h -
S 01 h 02h 10.7 -0.5 46 - 80 102 1019.9 +2.6/3h 0.0/1h -
S 02 h 03h 10.4 0.1 49 - 83 102 1019.7 +0.6/3h 0.0/1h -
S 03 h 04h 10.2 -0.9 46 18 0/8 63 96 1020.5 0.0/3h 0.0/3h
S 04 h 05h 10.0 -0.5 48 - 76 96 1020.2 +0.3/3h 0.0/1h -
S 05 h 06h 9.7 -2.6 42 - 33 86 1020.6 +0.9/3h 0.0/1h -
S 06 h 07h 9.6 -2.4 43 - 35 104 1020.2 -0.3/3h 0.0/12h - 0.0/3h - 0.0/24h -
S 07 h 08h 10.3 -1.4 44 - 83 113 1019.8 -0.4/3h 0.0/1h -
S 08 h 09h 11.1 -1.0 43 - 102 128 1019.4 -1.1/3h 0.0/1h -
S 09 h 10h 12.0 -1.9 38 - 96 120 1019.6 -0.5/3h 0.0/3h -
S 10 h 11h 13.1 -2.0 35 - 48 115 1020.3 +0.6/3h 0.0/1h -
S 11 h 12h 14.2 -3.6 29 - 78 100 1020.1 +0.8/3h 0.0/1h -
S 12 h 13h 14.8 -2.2 31 - 63 96 1020.2 +0.7/3h 0.0/6h - 0.0/3h -
S 13 h 14h 14.5 -2.5 31 - 35 86 1019.8 -0.4/3h 0.0/1h -
S 14 h 15h 14.7 -0.6 35 - 74 87 1018.8 -1.3/3h 0.0/1h -
S 15 h 16h 15.1 -2.8 29 20 1/8 70 102 1019.1 -1.1/3h 0.0/3h
S 16 h 17h 15.3 -0.5 34 - 70 93 1019.5 -0.3/3h 0.0/1h -
S 17 h 18h 14.9 1.1 39 - 31 90 1019.8 +1.0/3h 0.0/1h -
S 18 h 19h 14.8 -3.1 29 20 1/8 67 93 1019.9 +0.8/3h 0.0/12h - 0.0/3h
S 19 h 20h 13.6 2.5 47 - 54 83 1021.6 +2.0/3h 0.0/1h -
S 20 h 21h 13.8 -0.7 37 - 59 72 1022.1 +2.2/3h 0.0/1h -
S 21 h 22h 13.8 -1.4 35 - 35 86 1022.3 +2.3/3h 0.0/3h -
S 22 h 23h 13.4 0.1 40 - 61 83 1023.1 +1.5/3h 0.0/1h -
S 23 h 00h 12.5 2.3 50 - 26 72 1023.9 +1.8/3h 0.0/1h -
evolution des temperatures
cumul des precipitations
vent moyen et rafales
pression atmospherique

Un tiret (-) signifie que les données ne sont pas disponibles.

Passez la souris sur les pictos temps pour avoir plus de précisions. Passez les flèches sur l'icône de la direction du vent pour voir la direction précise en degrés.

Les données de l'heure en cours sont disponibles à partir de H+15 minutes.


S signifie station Synop, plus complète qu'une station Metar (M). Il y a +1h de différence entre l'heure UTC et l'heure légale en hiver et +2h en été.

Td est la mesure du point de rosée.

HR est l'humidité relative/p>

Vis est la visibilité

Néb est la nébulosité du ciel (couverture nuageuse) exprimée en octas (de 0/8 à 8/8).

Vent moy 10 min donne le vent moyen sur les 10 minutes qui précèdent le relevé.

Vent raf 1h donne la rafale maximale mesurée dans l'heure qui précède le relevé.


Les données les plus anciennes remontent à avril 2014.

Les données présentées sur cette page proviennent des stations météo officielles. Les relevés sont effectués aux normes en vigueur (anémomètre à 10m de haut, thermomètre sous abri normalisé à 2m du sol...)

Météo 60 décline toute responsabilité en cas d'absence de données, d'erreurs, de mauvaise utilisation ou interprétation et n'est pas habilité à fournir des certificats intempéries.